| time (UTC) | temp F | wind direction | speed knots | gust knots | rain 1hr in | rain 24hr in | rain mn in | humidity % | barometer mb |
| 20260505070004 | 55 | 36 | 18.2 | 20.0 | 0.00 | 0.00 | 0.00 | 45 | 1009.4 |
| 20260505064004 | 56 | 9 | 12.2 | 20.0 | 0.00 | 0.00 | 0.00 | 46 | 1008.7 |
| 20260505063004 | 56 | 25 | 15.6 | 22.6 | 0.00 | 0.00 | 0.00 | 45 | 1008.5 |
| 20260505062004 | 56 | 16 | 19.1 | 20.0 | 0.00 | 0.00 | 0.00 | 46 | 1008.2 |
| 20260505061004 | 56 | 10 | 16.5 | 22.6 | 0.00 | 0.00 | 0.00 | 47 | 1008.2 |
| 20260505060004 | 56 | 313 | 18.2 | 17.4 | 0.00 | 0.00 | 0.00 | 47 | 1008.6 |
| 20260505054003 | 56 | 355 | 11.3 | 18.2 | 0.00 | 0.00 | 0.00 | 47 | 1008.7 |
| 20260505053004 | 57 | 10 | 15.6 | 20.0 | 0.00 | 0.00 | 0.00 | 46 | 1008.0 |
| 20260505041004 | 61 | 338 | 20.9 | 25.2 | 0.00 | 0.00 | 0.00 | 41 | 1007.3 |
| 20260505040005 | 62 | 343 | 20.0 | 24.3 | 0.00 | 0.00 | 0.00 | 41 | 1007.1 |
| 20260505035005 | 62 | 9 | 18.2 | 24.3 | 0.00 | 0.00 | 0.00 | 41 | 1006.8 |
| 20260505034004 | 63 | 355 | 20.0 | 22.6 | 0.00 | 0.00 | 0.00 | 41 | 1006.6 |
| 20260505033004 | 63 | 331 | 18.2 | 20.9 | 0.00 | 0.00 | 0.00 | 41 | 1006.5 |
| 20260505031005 | 65 | 16 | 14.8 | 18.2 | 0.00 | 0.00 | 0.00 | 39 | 1006.1 |
| 20260505030004 | 66 | 21 | 15.6 | 19.1 | 0.00 | 0.00 | 0.00 | 38 | 1005.9 |
| 20260505024004 | 67 | 49 | 18.2 | 24.3 | 0.00 | 0.00 | 0.00 | 37 | 1005.4 |
| 20260505021004 | 69 | 6 | 13.9 | 15.6 | 0.00 | 0.00 | 0.00 | 37 | 1004.5 |
| 20260505015004 | 70 | 25 | 17.4 | 21.7 | 0.00 | 0.00 | 0.00 | 36 | 1003.8 |
| 20260505014004 | 71 | 15 | 17.4 | 26.1 | 0.00 | 0.00 | 0.00 | 35 | 1003.6 |
| 20260505013004 | 72 | 282 | 17.4 | 19.1 | 0.00 | 0.00 | 0.00 | 35 | 1003.2 |
| 20260505011004 | 74 | 328 | 18.2 | 21.7 | 0.00 | 0.00 | 0.00 | 35 | 1002.6 |
| 20260505010004 | 75 | 34 | 18.2 | 22.6 | 0.00 | 0.00 | 0.00 | 35 | 1002.5 |
| 20260505004004 | 76 | 357 | 12.2 | 19.1 | 0.00 | 0.00 | 0.00 | 35 | 1002.3 |
| 20260505003004 | 77 | 9 | 13.0 | 17.4 | 0.00 | 0.00 | 0.00 | 36 | 1002.3 |
| 20260505000004 | 79 | 333 | 14.8 | 17.4 | 0.00 | 0.00 | 0.00 | 34 | 1001.9 |
| 20260504235004 | 82 | 63 | 13.9 | 15.6 | 0.00 | 0.00 | 0.00 | 32 | 1001.9 |
| 20260504234004 | 84 | 6 | 0.0 | 0.0 | 0.00 | 0.00 | 0.00 | 26 | 1001.7 |
| 20260504233004 | 83 | 35 | 0.0 | 0.0 | 0.00 | 0.00 | 0.00 | 26 | 1001.7 |
| 20260504232004 | 84 | 0 | 0.0 | 4.3 | 0.00 | 0.00 | 0.00 | 26 | 1001.6 |
| 20260504230005 | 84 | 213 | 0.0 | 0.0 | 0.00 | 0.00 | 0.00 | 23 | 1001.6 |
| 20260504225004 | 86 | 253 | 0.0 | 0.0 | 0.00 | 0.00 | 0.00 | 22 | 1001.4 |
| 20260504224004 | 86 | 335 | 0.0 | 4.3 | 0.00 | 0.00 | 0.00 | 23 | 1001.3 |
| 20260504223004 | 85 | 307 | 0.0 | 0.0 | 0.00 | 0.00 | 0.00 | 22 | 1001.4 |
| 20260504222004 | 86 | 116 | 1.7 | 8.7 | 0.00 | 0.00 | 0.00 | 22 | 1001.2 |
| 20260504220004 | 88 | 221 | 0.0 | 7.8 | 0.00 | 0.00 | 0.00 | 22 | 1001.3 |
| 20260504215004 | 89 | 1 | 4.3 | 7.0 | 0.00 | 0.00 | 0.00 | 21 | 1001.4 |
| 20260504213005 | 88 | 321 | 1.7 | 6.1 | 0.00 | 0.00 | 0.00 | 21 | 1001.5 |
| 20260504211004 | 90 | 255 | 1.7 | 4.3 | 0.00 | 0.00 | 0.00 | 19 | 1001.7 |
| 20260504210004 | 88 | 205 | 0.9 | 7.8 | 0.00 | 0.00 | 0.00 | 21 | 1001.9 |
| 20260504205004 | 91 | 232 | 3.5 | 6.1 | 0.00 | 0.00 | 0.00 | 19 | 1001.9 |
| 20260504204004 | 90 | 342 | 0.9 | 6.1 | 0.00 | 0.00 | 0.00 | 20 | 1002.1 |
| 20260504203004 | 90 | 292 | 7.8 | 11.3 | 0.00 | 0.00 | 0.00 | 20 | 1002.1 |
| 20260504202004 | 89 | 22 | 0.0 | 6.1 | 0.00 | 0.00 | 0.00 | 20 | 1002.3 |
| 20260504200004 | 90 | 272 | 6.1 | 8.7 | 0.00 | 0.00 | 0.00 | 21 | 1002.3 |
| 20260504195004 | 90 | 359 | 7.8 | 14.8 | 0.00 | 0.00 | 0.00 | 20 | 1002.4 |
| 20260504194004 | 90 | 309 | 2.6 | 8.7 | 0.00 | 0.00 | 0.00 | 20 | 1002.4 |
| 20260504192003 | 90 | 325 | 5.2 | 7.8 | 0.00 | 0.00 | 0.00 | 22 | 1002.5 |
| 20260504191004 | 90 | 307 | 0.9 | 7.8 | 0.00 | 0.00 | 0.00 | 23 | 1002.5 |
| 20260504190004 | 90 | 266 | 6.1 | 7.8 | 0.00 | 0.00 | 0.00 | 24 | 1002.4 |
| 20260504185004 | 89 | 83 | 7.8 | 11.3 | 0.00 | 0.00 | 0.00 | 23 | 1002.5 |
| 20260504183005 | 90 | 285 | 4.3 | 7.8 | 0.00 | 0.00 | 0.00 | 22 | 1002.3 |
| 20260504181004 | 89 | 307 | 0.0 | 7.0 | 0.00 | 0.00 | 0.00 | 24 | 1002.4 |
| 20260504180004 | 89 | 261 | 1.7 | 7.0 | 0.00 | 0.00 | 0.00 | 26 | 1002.5 |
| 20260504175004 | 89 | 347 | 4.3 | 7.0 | 0.00 | 0.00 | 0.00 | 26 | 1002.6 |
| 20260504174004 | 89 | 279 | 5.2 | 7.8 | 0.00 | 0.00 | 0.00 | 28 | 1002.6 |
| 20260504173004 | 88 | 337 | 0.0 | 7.8 | 0.00 | 0.00 | 0.00 | 27 | 1002.7 |
| 20260504172004 | 88 | 270 | 1.7 | 8.7 | 0.00 | 0.00 | 0.00 | 27 | 1002.7 |
| 20260504171004 | 87 | 234 | 7.0 | 11.3 | 0.00 | 0.00 | 0.00 | 28 | 1002.7 |
| 20260504151004 | 74 | 242 | 0.0 | 5.2 | 0.00 | 0.00 | 0.00 | 46 | 1003.0 |
| 20260504082005 | 52 | 202 | 0.0 | 0.0 | 0.00 | 0.00 | 0.00 | 68 | 1004.9 |
| 20260504081005 | 53 | 202 | 0.0 | 0.0 | 0.00 | 0.00 | 0.00 | 69 | 1005.0 |